This demonstration page uses our WeatherBlox Daily Observations layout. Learn more.

Left ArrowRight Arrow

Hourly Observations for July 23, 2016

Temp ( °F °C ) Dew Point ( °F °C ) Humidity (%) Winds ( mph kmh ) Pressure ( in mb ) Visibility ( mi km ) Precip ( " mm )
12:15 am 00:15 Clear with Light Rain 80 26.5 70 21.2 73 73 E 6 9 29.80 1009 10 16 N/A
12:35 am 00:35 Clear 79 26.1 71 21.5 76 76 ENE 3 6 29.83 1010 10 16 N/A
12:55 am 00:55 Mostly Cloudy with Nearby Thunderstorms 80 26.8 70 21 71 71 WNW 21 33 29.91 1013 10 16 N/A
1:15 am 01:15 Cloudy with Thunderstorms 74 23.2 68 20.2 83 83 NNW 14 22 29.94 1014 4 6 0.17 4.32
1:35 am 01:35 Mostly Cloudy with Light Rain 73 22.5 68 20.2 87 87 WNW 15 24 29.94 1014 10 16 0.17 4.32
1:55 am 01:55 Mostly Cloudy 73 22.5 67 19.4 83 83 NW 15 24 29.94 1014 10 16 0.17 4.32
2:15 am 02:15 Mostly Cloudy with Rain 71 21.7 66 19 85 85 NNW 14 22 29.94 1014 10 16 0.01 0.25
2:35 am 02:35 Mostly Cloudy with Nearby Thunderstorms 70 21.3 66 19.1 87 87 N 14 22 29.94 1014 10 16 0.05 1.27
2:55 am 02:55 Cloudy with Rain 70 21.2 67 19.3 89 89 N 9 15 29.94 1014 10 16 0.07 1.78
3:15 am 03:15 Mostly Cloudy with Light Rain 70 21.2 67 19.5 90 90 ENE 6 9 29.91 1013 10 16 0.01 0.25
3:35 am 03:35 Mostly Cloudy with Light Rain 70 21.2 67 19.7 91 91 E 6 9 29.88 1012 10 16 0.02 0.51
3:55 am 03:55 Cloudy with Light Rain 71 21.5 68 19.8 90 90 N N/A 29.85 1011 10 16 0.03 0.76
4:15 am 04:15 Partly Cloudy with Light Rain 70 21.2 68 20 93 93 S 6 9 29.83 1010 10 16 0.01 0.25
4:35 am 04:35 Clear 70 21.2 68 20 93 93 N N/A 29.83 1010 10 16 0.01 0.25
4:55 am 04:55 Clear 70 21.1 67 19.7 92 92 SW 6 9 29.80 1009 10 16 0.01 0.25
5:15 am 05:15 Clear 71 21.6 67 19.5 88 88 SE 5 7 29.80 1009 10 16 N/A
5:35 am 05:35 Clear with Light Rain 71 21.8 67 19.2 85 85 SSE 5 7 29.83 1010 10 16 0.01 0.25
5:55 am 05:55 Clear with Nearby Thunderstorms 71 21.7 67 19.3 86 86 SSE 7 11 29.80 1009 10 16 0.01 0.25
6:15 am 06:15 Clear 71 21.9 66 19.1 84 84 S 9 15 29.74 1007 10 16 N/A
6:35 am 06:35 Sunny with Light Rain 72 22.1 66 19.1 83 83 S 7 11 29.74 1007 10 16 N/A
6:55 am 06:55 Sunny 71 21.7 67 19.2 86 86 N N/A 29.77 1008 10 16 N/A
7:15 am 07:15 Sunny 72 22.1 66 18.9 82 82 N N/A 29.71 1006 10 16 N/A
7:35 am 07:35 Sunny 74 23.3 65 18.1 73 73 SSW 12 19 29.74 1007 10 16 N/A
7:55 am 07:55 Sunny 76 24.6 64 17.8 66 66 SSW 15 24 29.74 1007 10 16 N/A
8:15 am 08:15 Partly Cloudy 78 25.5 65 18.3 64 64 S 16 26 29.71 1006 10 16 N/A
8:35 am 08:35 Partly Cloudy 79 26.1 65 18.5 63 63 SSW 16 26 29.71 1006 10 16 N/A
8:55 am 08:55 Sunny 78 25.8 66 18.9 66 66 S 12 19 29.71 1006 10 16 N/A
9:15 am 09:15 Sunny 79 26.1 66 19.1 65 65 S 12 19 29.74 1007 10 16 N/A
9:35 am 09:35 Sunny 80 26.9 67 19.5 64 64 SW 7 11 29.77 1008 10 16 N/A
9:55 am 09:55 Sunny 80 26.6 67 19.2 64 64 SW 9 15 29.74 1007 10 16 N/A
10:15 am 10:15 Sunny 81 27 68 19.8 65 65 W 3 6 29.77 1008 10 16 N/A
10:35 am 10:35 Sunny 81 27 68 20 66 66 N N/A 29.77 1008 10 16 N/A
10:55 am 10:55 Sunny 82 27.6 68 19.8 63 63 SW 5 7 29.77 1008 10 16 N/A
11:15 am 11:15 Sunny 81 27.2 68 20 65 65 WSW 6 9 29.77 1008 10 16 N/A
11:35 am 11:35 Sunny 82 27.6 68 20.1 64 64 WSW 6 9 29.74 1007 10 16 N/A
11:55 am 11:55 Sunny 83 28.5 70 20.9 63 63 SSW 8 13 29.74 1007 10 16 N/A
12:15 pm 12:15 Sunny 85 29.5 70 21 60 60 SSW 10 17 29.71 1006 10 16 N/A
12:35 pm 12:35 Sunny 86 30.2 71 21.4 59 59 WSW 7 11 29.71 1006 10 16 N/A
12:55 pm 12:55 Sunny 87 30.6 68 20.2 54 54 WSW 9 15 29.71 1006 10 16 N/A
1:15 pm 13:15 Sunny 87 30.3 68 20.1 54 54 SW 7 11 29.71 1006 10 16 N/A
1:35 pm 13:35 Sunny 88 31.1 70 21 55 55 SW 6 9 29.68 1005 10 16 N/A
1:55 pm 13:55 Sunny 89 31.5 69 20.8 53 53 SW 7 11 29.71 1006 10 16 N/A
2:15 pm 14:15 Sunny 90 32 70 21 52 52 SW 3 6 29.68 1005 10 16 N/A
2:35 pm 14:35 Sunny 90 32.1 70 21.1 52 52 SSW 3 6 29.68 1005 10 16 N/A
2:55 pm 14:55 Sunny 90 32.4 70 21.2 52 52 WSW 3 6 29.68 1005 10 16 N/A
3:15 pm 15:15 Sunny 91 32.5 70 20.9 50 50 WSW 3 6 29.68 1005 10 16 N/A
3:35 pm 15:35 Sunny 91 33 70 21.1 50 50 S 3 6 29.65 1004 10 16 N/A
3:55 pm 15:55 Sunny 92 33.5 71 21.7 50 50 S 3 6 29.65 1004 10 16 N/A
4:15 pm 16:15 Sunny 92 33.5 71 21.9 51 51 S 6 9 29.65 1004 10 16 N/A
4:35 pm 16:35 Sunny 91 33 69 20.8 49 49 N N/A 29.65 1004 10 16 N/A
4:55 pm 16:55 Sunny 91 32.8 71 21.7 52 52 SSE 3 6 29.65 1004 10 16 N/A
5:15 pm 17:15 Sunny 92 33.5 71 21.4 49 49 N N/A 29.65 1004 10 16 N/A
5:35 pm 17:35 Sunny 93 33.8 73 22.9 53 53 N N/A 29.65 1004 10 16 N/A
5:55 pm 17:55 Sunny 92 33.3 72 22 52 52 N 3 6 29.65 1004 10 16 N/A
6:15 pm 18:15 Sunny 92 33.1 73 22.6 54 54 N N/A 29.65 1004 10 16 N/A
6:35 pm 18:35 Sunny 91 32.9 74 23.1 56 56 SSE 6 9 29.65 1004 10 16 N/A
6:55 pm 18:55 Sunny 91 32.5 74 23.4 59 59 SSE 6 9 29.62 1003 10 16 N/A
7:15 pm 19:15 Sunny 90 32.2 74 23.6 60 60 S 6 9 29.65 1004 10 16 N/A
7:35 pm 19:35 Sunny 90 32 74 23.1 59 59 SSE 5 7 29.65 1004 10 16 N/A
7:55 pm 19:55 Sunny 89 31.6 75 24 64 64 SSE 5 7 29.65 1004 10 16 N/A
8:15 pm 20:15 Sunny 88 30.9 76 24.6 69 69 S 3 6 29.68 1005 10 16 N/A
8:35 pm 20:35 Sunny 87 30.4 76 24.6 71 71 N N/A 29.68 1005 10 16 N/A
8:55 pm 20:55 Sunny 84 28.9 78 25.4 81 81 N N/A 29.71 1006 10 16 N/A
9:15 pm 21:15 Clear 82 27.5 77 24.8 85 85 N N/A 29.74 1007 10 16 N/A
9:35 pm 21:35 Clear 80 26.9 77 24.8 88 88 N 7 11 29.74 1007 10 16 N/A
9:55 pm 21:55 Clear 79 26 76 24.2 90 90 N 6 9 29.74 1007 10 16 N/A
10:15 pm 22:15 Clear 78 25.6 75 24 91 91 N 3 6 29.77 1008 10 16 N/A
10:35 pm 22:35 Clear 78 25.6 75 24 91 91 N N/A 29.80 1009 10 16 N/A
10:55 pm 22:55 Clear 78 25.5 74 23.5 89 89 N 8 13 29.80 1009 10 16 N/A
11:15 pm 23:15 Clear 78 25.4 74 23.3 88 88 N 6 9 29.80 1009 10 16 N/A
11:35 pm 23:35 Clear 76 24.7 73 23 90 90 N 8 13 29.80 1009 7 11 N/A
11:55 pm 23:55 Clear 77 24.9 70 21.2 80 80 N 6 9 29.80 1009 7 11 N/A

Powered by AerisWeather